Temp
19 19 19 19 19 19 19 19 19 19 19 19 18 17 17 16 16 16 16 15 15 15 15 15 15 15 15 15 15 16 15 15 15 14 14 14 14 14 14 14 14 14
19 20 20 19 20 20 19 19 19 19 18 19 18 18 17 16 16 16 16 15 15 15 15 15 15 15 15 15 15 15 15 14 14 14 14 14 14 14 13 14 14 14
19 19 19 20 20 20 19 19 19 19 18 18 18 18 17 16 16 16 15 15 15 15 15 15 15 15 15 15 15 15 15 14 14 14 14 14 14 14 14 14 14 13
19 19 19 19 19 20 19 19 18 19 18 18 18 18 17 16 16 16 15 15 15 15 15 15 15 15 15 15 15 15 15 14 14 14 14 14 14 14 14 14 13 13
19 19 19 19 19 19 19 19 19 19 18 18 18 18 17 16 16 16 16 15 15 15 15 15 15 15 15 15 15 15 14 14 14 14 14 14 14 14 13 13 13 13
19 19 19 19 19 19 18 18 18 18 19 18 18 18 17 16 16 16 16 16 16 15 15 15 15 15 14 15 15 14 14 14 14 14 14 14 14 13 13 13 13 13
19 19 19 19 19 19 18 18 18 18 18 18 18 18 17 17 16 17 16 16 16 16 16 15 15 15 15 15 15 15 15 14 14 14 14 14 14 14 13 13 13 14
19 19 18 18 18 18 18 17 17 17 17 18 18 18 17 17 17 17 17 16 16 16 16 16 15 15 15 15 15 15 14 14 14 14 14 14 14 14 13 13 13 13
18 18 18 18 18 18 18 17 17 17 16 17 18 18 18 17 17 17 17 17 17 16 16 16 16 16 15 15 15 15 14 14 14 14 14 14 13 14 14 13 13 13
18 18 18 18 18 18 18 17 17 17 17 17 17 17 18 18 18 17 17 17 17 17 17 16 16 16 15 15 15 15 14 14 14 14 14 13 13 14 14 13 13 13
17 17 17 16 16 17 17 17 16 16 17 16 16 17 17 17 18 18 18 17 17 17 17 17 16 16 16 15 15 15 14 14 14 14 13 13 13 13 13 13 13 13
16 16 16 16 16 16 16 16 16 16 17 16 16 17 17 17 17 18 18 18 17 17 17 17 17 16 16 15 15 15 14 14 14 13 13 13 13 13 12 12 12 12
16 16 16 16 15 15 15 15 15 15 16 16 16 16 16 16 17 17 18 18 18 18 18 17 17 17 16 15 15 15 14 14 13 13 13 13 12 12 12 12 12 12
15 15 15 15 15 15 16 16 15 15 16 16 16 16 16 16 16 17 18 18 18 18 18 17 17 17 16 16 15 14 14 13 13 13 13 12 12 12 12 11 11 11
14 14 15 15 15 16 16 16 16 16 16 15 15 15 15 16 16 17 17 17 17 18 18 17 17 17 16 16 15 14 14 13 13 12 12 12 12 11 11 11 11 11
15 15 15 15 16 16 16 16 17 17 17 16 15 15 15 16 16 17 17 16 16 16 17 17 17 16 16 15 14 14 13 13 13 12 12 12 12 11 11 11 11 11
17 16 16 16 17 17 17 17 17 17 17 17 16 16 16 16 16 16 16 15 15 15 16 16 16 15 15 15 14 13 13 13 12 12 12 12 12 11 11 11 11 10
17 17 17 17 17 17 17 17 17 17 17 17 17 16 16 16 15 15 16 15 15 14 15 15 14 14 14 14 13 13 12 12 12 12 11 11 11 11 11 11 11 10
17 17 17 17 17 17 17 17 17 17 17 17 17 17 16 15 15 15 15 15 14 14 14 14 13 13 13 13 12 12 12 12 12 11 11 11 11 11 11 11 11 10
16 16 17 17 17 17 17 17 17 17 17 16 16 16 16 15 15 15 15 14 14 14 14 13 12 11 12 12 12 11 11 11 12 11 11 11 11 10 10 10 10 10
16 16 16 16 16 16 16 16 16 16 16 16 16 16 16 16 15 14 14 14 14 13 13 12 11 11 11 11 11 11 10 11 11 10 10 10 10 10 10 9 9 9
16 15 15 15 16 16 16 16 16 16 16 16 16 16 16 16 15 15 14 14 14 13 12 11 10 10 10 10 10 10 9 10 10 10 9 10 10 9 9 9 9 9
15 15 15 15 15 15 16 16 16 16 16 16 16 15 15 15 15 15 14 14 14 13 12 10 10 10 9 9 9 9 9 9 9 9 9 9 9 9 9 9 9 9
15 15 15 15 15 15 15 15 15 16 16 16 15 15 15 15 14 14 14 13 13 12 11 10 9 9 9 9 9 9 9 9 9 10 10 10 10 10 10 10 10 9
14 14 14 14 14 14 15 15 15 15 15 15 15 15 15 14 14 14 13 12 11 11 10 9 9 8 8 8 8 8 8 9 9 10 10 10 10 10 10 10 10 9
14 14 14 14 14 14 14 14 14 15 15 15 15 15 15 14 14 13 12 10 10 9 9 9 9 8 8 8 8 7 8 8 8 9 9 9 9 9 10 9 9 9
Height
798 800 801 802 803 804 806 807 808 809 811 812 813 814 815 816 817 818 818 818 819 819 819 819 819 820 820 821 821 821 822 822 822 822 822 822 822 822 822 822 822 822
797 798 800 801 802 803 804 806 807 808 810 811 812 813 814 815 816 817 818 819 819 819 819 820 820 820 821 821 822 822 822 822 822 822 822 822 823 822 822 822 822 822
796 797 799 800 801 802 803 804 806 807 808 809 810 812 813 814 815 816 817 818 819 819 819 820 820 821 821 821 822 822 823 823 823 823 823 823 823 823 823 823 823 823
795 796 798 799 800 801 802 803 804 805 806 808 809 810 811 813 814 815 816 817 818 818 819 820 820 820 821 821 822 822 823 823 824 824 824 824 824 824 824 824 824 824
793 795 796 798 799 800 802 803 803 804 805 806 807 808 809 811 812 813 814 815 816 817 818 818 819 820 821 821 821 822 822 823 823 824 824 825 825 825 825 825 825 825
792 794 795 797 798 800 801 802 804 804 805 804 805 806 807 808 810 811 812 813 814 815 816 817 818 818 819 820 821 821 822 822 823 823 824 824 825 825 825 826 825 825
791 792 794 795 796 798 799 801 803 805 805 804 804 804 805 806 807 808 810 811 812 813 814 815 816 817 818 818 819 820 821 821 822 823 823 824 824 825 825 825 825 825
790 791 792 793 794 796 798 800 801 803 805 805 803 803 803 804 805 805 807 808 809 811 812 813 814 815 816 817 817 818 819 820 821 822 822 823 823 824 824 824 825 825
789 790 790 792 793 795 798 798 799 800 803 804 803 804 803 803 803 803 804 805 807 808 809 810 811 812 814 815 816 817 818 819 820 820 821 822 822 823 823 823 824 824
789 789 790 790 791 794 796 798 798 798 799 800 802 803 803 803 803 802 803 803 804 805 806 808 809 810 812 813 814 815 816 817 818 819 820 821 821 822 822 823 823 823
789 789 790 789 790 791 793 795 797 797 796 796 798 800 801 801 802 801 801 801 801 803 804 805 807 808 809 810 812 813 814 815 817 818 819 820 820 821 822 822 822 822
789 789 790 789 789 790 791 792 794 795 795 794 795 796 797 799 800 800 799 799 799 800 802 803 805 807 808 809 810 811 813 814 815 816 817 818 819 820 821 821 822 822
787 789 789 789 789 790 791 792 792 793 792 793 794 794 795 796 797 797 797 796 797 798 799 801 802 805 807 807 807 808 810 812 813 815 816 817 818 819 819 820 820 821
785 787 787 787 788 789 791 791 791 789 788 790 792 793 793 794 794 794 794 794 794 795 796 798 799 801 804 806 806 806 808 810 811 813 814 815 816 817 818 818 819 820
784 785 785 786 787 788 789 789 787 786 785 786 790 791 792 791 791 791 791 791 792 792 793 794 796 798 800 803 804 804 805 807 809 811 812 813 815 815 816 817 817 818
785 785 785 786 787 787 786 784 783 783 783 785 787 788 789 788 788 789 789 789 790 791 792 792 793 795 798 801 802 802 804 805 807 809 810 811 813 814 815 815 815 816
784 785 785 785 785 784 784 782 781 781 781 783 784 785 786 786 786 786 786 787 789 790 790 789 791 793 795 798 800 801 802 804 805 807 808 810 811 812 813 814 814 814
783 783 783 783 783 782 782 781 781 780 780 781 781 782 784 784 784 785 785 785 786 787 788 789 789 791 793 796 798 799 801 802 804 805 807 808 810 810 811 812 812 813
782 782 782 782 781 781 781 780 780 780 780 780 780 781 782 782 783 783 783 784 784 785 787 789 789 790 792 795 797 798 799 801 803 804 805 807 808 809 810 810 811 811
781 781 780 780 780 780 779 779 779 779 779 779 779 779 780 781 781 781 781 783 783 784 786 787 788 790 793 795 797 798 799 800 803 804 804 806 807 807 808 809 809 809
780 780 780 779 779 779 778 778 778 778 778 778 778 778 778 779 780 780 780 781 782 783 784 785 786 789 793 795 796 797 798 800 802 803 804 805 806 806 807 807 807 808
779 779 779 778 778 778 777 777 777 777 777 777 777 777 777 777 778 778 779 779 780 782 783 783 785 788 791 794 795 796 798 799 801 802 803 804 804 805 805 805 806 806
777 777 777 777 777 777 776 776 776 776 775 775 776 776 776 776 776 777 777 778 779 781 782 782 784 788 791 793 794 796 797 799 800 801 802 803 803 803 803 803 804 804
776 776 776 776 775 775 775 774 774 774 774 774 774 774 774 775 775 775 776 777 779 780 780 781 785 788 791 792 794 795 797 799 800 800 801 801 801 802 802 802 802 802
774 774 774 774 774 773 773 773 773 772 772 772 772 773 773 773 773 774 776 777 778 778 779 781 785 789 791 793 794 795 796 798 799 799 799 800 800 801 801 800 800 800
772 772 772 772 772 771 771 771 771 770 770 770 771 771 772 772 773 774 775 776 777 779 780 783 786 788 791 792 793 795 796 797 798 799 799 799 799 800 800 799 799 799
Wind_Speed
15 15 14 14 13 13 13 12 11 11 10 9 9 9 9 9 9 7 6 6 5 5 5 5 5 5 5 5 5 5 5 6 6 6 5 5 5 5 5 5 5 4
15 15 14 14 14 13 14 13 12 11 10 9 9 10 10 10 10 9 7 7 6 6 6 5 5 5 5 5 4 4 5 5 5 4 5 4 4 5 5 5 6 5
16 15 14 14 14 13 14 14 13 12 12 11 11 11 12 12 12 11 10 9 8 7 7 6 6 6 5 5 5 4 4 4 4 4 4 4 3 4 4 4 5 5
16 16 15 14 13 13 13 14 14 14 13 13 12 12 13 14 14 13 12 11 10 9 9 8 7 7 6 6 6 5 5 5 4 4 3 3 3 2 3 3 3 4
17 17 16 15 13 12 12 13 14 14 14 14 14 14 15 15 15 15 14 13 12 11 11 10 9 8 8 7 7 6 6 5 5 5 4 3 3 2 2 1 1 2
16 15 15 15 15 13 13 13 12 13 14 15 16 16 16 17 17 16 16 15 15 13 13 12 11 10 10 9 8 7 7 6 6 5 5 4 3 2 2 1 1 1
14 14 14 15 15 14 14 14 13 13 15 15 16 17 18 19 18 18 18 17 16 15 15 14 13 13 12 11 10 9 8 7 7 6 6 5 4 3 3 2 1 2
12 12 13 14 14 14 13 13 13 14 15 16 16 17 18 19 19 19 19 19 18 17 16 16 15 15 14 13 12 11 10 9 8 7 7 6 5 4 4 3 2 2
12 12 12 13 14 15 14 14 16 16 16 15 16 16 17 19 20 20 20 20 19 19 18 17 17 16 15 14 13 12 12 10 9 9 8 7 6 5 5 4 3 3
9 10 10 10 11 12 12 13 17 19 18 17 16 17 18 18 19 20 20 20 20 20 19 19 18 17 17 15 14 14 13 12 11 10 9 8 7 6 4 4 4 4
7 8 8 8 10 13 14 14 16 18 18 18 18 18 19 19 20 20 21 21 21 20 20 19 19 18 18 17 16 15 14 13 12 11 10 8 7 6 5 4 4 4
3 5 6 7 10 14 16 17 18 19 18 17 17 18 19 20 21 21 22 21 21 20 20 19 19 18 18 17 16 16 15 14 12 11 10 9 8 6 5 5 4 4
2 2 4 5 6 10 13 16 19 20 17 15 15 16 18 21 24 23 23 22 22 21 20 20 19 19 19 18 17 17 16 15 14 12 11 9 8 7 6 6 5 5
2 4 5 6 7 8 11 15 17 16 15 15 17 19 20 23 24 23 22 22 22 22 21 21 20 20 20 20 18 18 17 16 15 13 12 11 9 8 8 7 6 6
4 5 6 7 8 9 11 13 14 13 14 15 20 23 24 23 22 21 21 21 21 21 21 22 21 21 22 22 19 18 18 16 15 13 12 11 10 9 9 8 7 6
3 4 6 7 9 10 11 11 11 11 12 14 18 21 21 20 20 20 20 20 21 22 22 22 21 20 22 23 21 19 17 16 14 13 12 11 10 9 9 8 8 7
5 5 6 8 9 9 9 10 10 10 11 12 14 15 16 17 18 19 19 19 20 21 20 19 20 20 22 24 24 20 17 15 14 13 12 11 10 9 9 8 8 7
6 7 8 8 9 9 9 9 10 10 11 11 12 13 14 15 16 17 17 17 17 18 17 16 18 20 23 27 27 23 18 14 12 12 12 10 10 9 8 7 7 6
7 8 9 9 9 9 9 9 9 10 11 11 11 12 12 13 14 14 16 16 14 16 17 16 16 19 24 28 27 24 21 14 10 11 11 9 9 9 7 7 6 6
8 9 9 9 10 10 10 11 11 11 11 10 11 12 11 12 13 13 15 16 15 17 18 18 18 21 24 28 26 24 21 15 9 9 9 8 8 8 7 7 7 7
8 9 9 9 10 10 11 12 12 12 12 11 11 12 12 12 13 14 15 15 16 17 18 18 20 21 25 27 25 21 19 14 9 8 8 7 7 8 8 8 8 8
8 9 9 10 11 11 12 12 12 13 13 12 12 12 12 11 12 13 14 14 15 15 15 18 21 23 26 26 22 19 17 13 9 8 7 7 7 8 8 8 9 9
9 9 10 10 11 12 13 13 13 13 13 12 13 12 13 12 11 12 14 15 16 14 14 18 22 25 26 24 20 17 14 10 8 8 7 7 8 8 8 8 9 9
10 10 10 11 12 13 14 13 14 14 13 12 13 13 14 13 11 12 12 13 14 15 17 21 26 27 25 21 18 15 12 9 7 7 7 7 7 7 7 8 9 11
11 11 11 12 12 13 14 14 14 14 14 13 13 13 13 12 11 12 10 8 11 15 18 23 28 27 23 18 15 13 11 7 4 4 4 4 5 7 8 8 9 11
13 12 12 12 13 13 13 14 14 14 14 14 12 13 13 11 10 10 8 10 12 15 19 25 28 26 21 17 14 12 10 6 2 1 3 5 5 7 8 8 9 11
Wind_Direction
189 190 189 188 188 183 182 184 180 177 179 179 177 177 177 175 174 175 173 166 159 152 146 141 134 128 120 112 102 96 90 84 79 73 71 68 62 62 55 45 37 25
193 195 195 195 195 190 186 186 184 181 183 185 182 179 178 176 177 180 178 174 172 168 163 158 152 147 141 135 126 119 113 106 101 90 82 75 62 56 45 36 34 18
195 200 201 202 202 198 190 187 187 186 186 187 185 182 179 177 180 182 181 181 182 179 176 173 168 165 160 155 149 142 138 130 123 119 106 95 81 65 51 34 30 20
197 202 206 209 209 206 197 191 190 189 190 190 189 186 182 180 182 184 185 186 186 186 186 184 180 178 174 169 168 162 156 152 147 143 134 120 106 89 72 47 35 25
200 204 208 212 215 214 208 203 201 197 194 192 190 189 186 184 186 187 188 189 190 192 191 189 188 185 182 181 181 176 171 172 167 161 159 148 135 123 110 75 45 22
205 210 213 217 219 220 219 217 216 212 207 198 192 193 190 188 190 192 193 193 193 195 193 192 192 189 188 189 188 187 186 183 176 176 178 167 160 157 150 171 248 284
212 213 217 222 223 222 222 223 225 229 225 212 199 197 194 192 194 195 196 198 198 197 197 196 195 192 191 193 193 193 192 185 179 185 190 180 175 182 177 183 253 269
222 220 221 227 227 225 224 222 226 236 239 229 215 207 201 197 198 199 199 200 201 202 202 201 199 198 195 194 196 194 189 185 185 192 194 186 186 197 197 196 226 260
228 230 231 235 237 236 234 227 226 233 240 239 230 222 215 207 204 203 202 202 203 204 205 205 203 201 198 198 199 194 189 188 190 193 192 190 195 204 205 206 217 242
237 236 241 246 247 248 251 245 238 237 239 240 239 236 231 222 216 211 207 206 206 206 207 206 205 203 201 201 200 197 194 192 191 192 194 195 199 204 208 215 226 239
255 251 256 257 253 253 259 259 254 248 240 233 233 235 236 233 228 221 216 212 210 210 210 208 206 205 202 201 201 199 196 194 193 192 194 197 199 204 217 226 229 235
250 265 268 263 257 257 257 255 251 248 240 230 229 232 235 238 238 231 225 220 215 214 215 212 212 213 208 201 200 199 194 193 194 192 193 197 198 204 213 217 223 237
70 327 292 287 278 271 267 257 248 245 243 241 244 244 239 240 242 237 230 224 220 219 218 216 216 219 217 208 199 195 193 191 191 191 193 195 197 203 205 204 216 231
316 300 303 312 305 289 276 265 256 253 255 256 258 257 249 242 241 240 234 228 225 223 221 220 218 218 221 217 202 191 189 188 187 188 192 194 195 200 200 200 210 218
285 281 288 290 284 273 265 265 265 265 260 250 246 248 249 245 243 242 238 231 229 229 225 222 217 216 221 219 204 188 185 186 186 187 189 190 191 194 195 198 206 212
269 261 263 262 263 262 262 267 272 270 260 245 237 240 245 246 246 245 240 237 239 239 233 224 216 216 220 213 197 187 185 182 181 184 186 186 188 191 194 199 205 211
280 267 262 262 265 269 271 272 272 270 266 257 247 243 244 246 247 245 244 246 247 244 235 220 210 215 217 205 191 184 182 178 177 180 182 185 189 192 198 205 210 213
291 284 279 276 275 276 277 277 274 272 269 265 256 247 245 248 248 245 248 251 244 234 227 214 209 214 210 197 188 182 176 172 175 179 180 187 194 196 202 208 212 218
295 290 286 285 284 284 284 283 278 273 269 267 263 254 247 247 246 243 247 248 234 222 221 215 211 210 203 194 190 185 177 172 178 184 183 192 198 195 202 212 220 232
293 291 290 291 291 290 290 285 281 277 271 265 263 257 246 242 242 239 242 241 231 224 222 212 204 201 198 195 193 191 187 184 186 186 183 192 199 198 209 222 229 239
289 289 291 293 293 292 290 285 281 278 272 264 260 257 250 244 241 240 240 238 235 229 214 199 197 198 198 198 196 193 190 185 179 177 182 198 209 210 219 228 236 243
286 287 290 291 290 289 286 283 280 275 269 264 260 256 253 248 244 244 241 234 232 224 199 188 195 197 197 196 191 184 180 178 176 178 191 209 216 220 229 237 243 245
282 285 287 288 290 289 284 282 280 275 269 263 257 253 250 246 244 246 241 232 226 212 189 186 189 189 188 185 178 173 168 169 178 186 201 218 223 230 240 246 249 247
280 283 285 286 287 286 284 282 278 275 270 261 255 253 250 246 243 243 240 233 219 198 187 187 183 179 178 174 168 165 158 162 188 200 211 228 234 241 251 257 260 256
279 280 280 282 282 282 281 280 275 273 269 260 256 255 251 246 243 237 222 197 187 184 187 188 179 171 170 167 163 161 153 157 200 213 224 249 260 265 267 268 270 271
274 275 276 277 278 278 277 275 272 269 265 258 254 255 255 250 239 220 176 150 166 176 180 181 173 166 167 171 169 165 159 159 175 246 279 279 279 280 281 281 281 284